Regional Weather Roundup
Issued by NWS

Home | Current Version | Previous Version | Graphics & Text | Print | Product List | Glossary Off
Versions: 1 2 3 4 5 6 7 8 9 10 11 12 13 14 15 16 17 18 19 20 21 22 23 24 25 26 27 28 29 30 31 32 33 34 35 36 37 38 39 40 41 42 43 44 45 46 47 48 49 50

000
ASUS43 KMKX 190100
RWRWI

WISCONSIN REGIONAL WEATHER ROUNDUP
NATIONAL WEATHER SERVICE MILWAUKEE/SULLIVAN WI
800 PM CDT THU SEP 18 2014

NOTE: "FAIR" INDICATES FEW OR NO CLOUDS BELOW 12,000 FEET WITH NO
SIGNIFICANT WEATHER AND/OR OBSTRUCTIONS TO VISIBILITY.

WIZ001-002-006>008-014>016-023>028-190200-
NORTHWEST WISCONSIN

CITY           SKY/WX    TMP DP  RH WIND       PRES   REMARKS
SUPERIOR ARPT  CLOUDY    48  45  90 NE9G16    30.06S
ASHLAND        CLEAR     41  40  96 CALM      30.09R
HAYWARD        CLEAR     53  50  89 SE5       30.06R
SIREN          CLEAR     58  53  83 SE6       30.02F
RICE LAKE      CLEAR     56  51  83 E6        30.07R
LADYSMITH      CLEAR     55  51  86 SE3       30.09S
EAU CLAIRE     NOT AVBL
MENOMONIE      CLEAR     58  55  87 E5        30.05S
NEW RICHMOND   CLEAR     60  55  82 E6        30.02S
OSCEOLA        CLEAR     61  56  84 SE8       30.03S
$$

WIZ003>005-009-010-017-018-190200-
NORTH CENTRAL WISCONSIN

CITY           SKY/WX    TMP DP  RH WIND       PRES   REMARKS
WOODRUFF       CLEAR     52  49  89 CALM      30.09F
RHINELANDER    CLEAR     50  47  89 SE6       30.11S
EAGLE RIVER    CLEAR     50  44  80 CALM      30.10S
LAND O LAKES   CLEAR     47  46  94 SE3       30.11S
PHILLIPS       CLEAR     52  48  88 SE3       30.08S
TOMAHAWK       CLEAR     47  45  93 CALM      30.11S
MEDFORD        CLEAR     49  47  93 SE3       30.11R
MERRILL        CLEAR     51  49  92 SE3       30.11S
$$

WIZ029-030-035-036-043>047-190200-
CENTRAL WISCONSIN

CITY           SKY/WX    TMP DP  RH WIND       PRES   REMARKS
WAUSAU         CLEAR     51  48  89 S7        30.11R
MOSINEE        CLEAR     48  48 100 SE3       30.13S
MARSHFIELD     CLEAR     51  48  89 E5        30.11R
STEVENS POINT  CLEAR     49  46  90 E3        30.13S
WAUPACA        CLEAR     55  52  89 CALM      30.14R
WAUTOMA        NOT AVBL
WISC RAPIDS    CLEAR     53  49  86 E5        30.13R
CAMP DOUGLAS   NOT AVBL
$$

WIZ011>013-019>022-031-037>040-048>050-190200-
NORTHEAST WISCONSIN

CITY           SKY/WX    TMP DP  RH WIND       PRES   REMARKS
ANTIGO         CLEAR     47  46  93 SE6       30.13S
STURGEON BAY   CLEAR     48  43  81 E3        30.17R
GREEN BAY      CLEAR     49  47  93 E6        30.15S
MANITOWOC      NOT AVBL
APPLETON       MOCLDY    55  46  71 VRB5      30.14S
CLINTONVILLE   CLEAR     50  45  81 E3        30.13S
OSHKOSH        CLEAR     51  50  96 S5        30.14R
$$

WIZ032>034-041-042-053>061-190200-
SOUTHWEST WISCONSIN

CITY           SKY/WX    TMP DP  RH WIND       PRES   REMARKS
LA CROSSE      CLEAR     63  55  75 SE8       30.06S
SPARTA         CLEAR     57  52  82 SE5       30.10S
VIROQUA        FAIR      58  55  89 E7        30.09S
BOSCOBEL       CLEAR     60  56  86 NE3       30.09R
PRAIRIE DU CHI CLEAR     61  54  76 E6        30.06S
PLATTEVILLE    FAIR      60  53  77 CALM      30.10R
$$

WIZ056-057-062-063-064-067-068-190200-
SOUTH CENTRAL WISCONSIN

CITY           SKY/WX    TMP DP  RH WIND       PRES   REMARKS
BARABOO/DELLS  CLEAR     54  50  86 SE3       30.12R
LONE ROCK      NOT AVBL
WATERTOWN      CLEAR     55  53  92 E6        30.14R
MADISON        MOCLDY    56  52  86 CALM      30.12S
MIDDLETON      FAIR      57  54  89 CALM      30.12S
MONROE         CLEAR     59  54  82 E5        30.11S
JANESVILLE     CLEAR     59  54  82 E8        30.12R
$$

WIZ051-052-058>065-066-070>072-190200-
SOUTHEAST WISCONSIN

CITY           SKY/WX    TMP DP  RH WIND       PRES   REMARKS
MILWAUKEE      CLOUDY    56  51  84 N6        30.17R
WAUKESHA       MOCLDY    52  48  87 E7        30.17R
MILWAUKEE/TIMM NOT AVBL
RACINE         CLOUDY    57  52  83 NE3       30.17R
BURLINGTON     CLOUDY    53  50  91 E5        30.15S
KENOSHA        CLOUDY    55  52  89 NE7       30.16R
FOND DU LAC    CLEAR     52  49  89 S9        30.15R
SHEBOYGAN      PTCLDY    48  45  89 CALM      30.17R
WEST BEND      PTCLDY    50  46  87 CALM      30.16R
JUNEAU         CLEAR     55  52  88 E9        30.15R
$$

LSZ147-162-190200-
LAKE SUPERIOR

STATION/POSITION TIME  TEMP    WIND        PRES    WAVE
                       AIR SEA DIR/SP/G            HT/PER
                 (UTC) (F)     (DEG/KT/KT) (MB)    (FT/S)
W MID LAKE BUOY  2350   47 47   70/ 10/ 10 1019.2F   1/ 3
DEVILS ISLAND    0000   47      80/ 10/ 12 1019.2F
PORT WING        0040   51      80/  4/  6 1018.3S
SAXON HARBOR     0000   49        CALM     1018.6F
$$

LMZ867-665-643>646-190200-
LAKE MICHIGAN

STATION/POSITION TIME  TEMP    WIND        PRES    WAVE
                       AIR SEA DIR/SP/G            HT/PER
                 (UTC) (F)     (DEG/KT/KT) (MB)    (FT/S)
N MID LAKE BUOY  2350   52 58   60/  4/  6 1021.5F   0
NORTHPORT PIER   0000   53      90/  4/  6 1021.0S
SISTER BAY       2257   54     140/  6/ 10   N/A
KEWAUNEE LAKESHO 0000   52      90/  3/  4 1020.1F
SHEBOYGAN LAKESH 0000   52 49   30/  8/  9 1021.6R
PORT WASHINGTON  0040   56      80/  4/  6 1022.0R
ATWATER BUOY     0000   57      50/  4/  6 1022.1R
MILWAUKEE LAKESH 0000   56      20/  5/  5   N/A
S MID LAKE BUOY  2350   61 65   10/  8/ 10 1020.3R   2/ 6
KENOSHA   LAKESH 0000   57      20/  8/  9 1020.3S
$$

TC  - TEMPERATURE IN CELSIUS
VSB - VISIBILITY IN STATUTE MILES
WCI - WIND CHILL INDEX
HX  - HEAT INDEX




USA.gov is the U.S. government's official web portal to all federal, state and local government web resources and services.